Weather History for Manistique, MI

Change the Weather History Date:

Friday, January 24, 2014

  Actual Average Record
Temperature  
Mean Temperature 7 °F -  
Max Temperature 18 °F 25 °F 41 °F (1967)
Min Temperature -4 °F 8 °F -17 °F (1963)
Degree Days  
Heating Degree Days 58    
Moisture  
Dew Point 3 °F    
Average Humidity 79    
Maximum Humidity 87    
Minimum Humidity 66    
Precipitation  
Precipitation 0.00 in - - ()
Sea Level Pressure  
Sea Level Pressure 29.64 in    
Wind  
Wind Speed 11 mph (WSW)    
Max Wind Speed 20 mph    
Max Gust Speed 33 mph    
Visibility 5 miles    
Events Snow    
Averages and records for this station are not official NWS values.
T = Trace of Precipitation, MM = Missing Value Source: NWS Daily Summary

Daily Weather History Graph

Daily Weather History Graph

Search for Another Location

Airport:

Trip Planner

Search our weather history database for the weather conditions in past years. The results will help you decide how hot, cold, wet, or windy it might be!

Date:

Astronomy

Jan. 24, 2014 Rise Set
Actual Time 8:15 AM EST 5:38 PM EST
Civil Twilight 7:42 AM EST 6:11 PM EST
Nautical Twilight 7:06 AM EST 6:47 PM EST
Astronomical Twilight 6:31 AM EST 7:22 PM EST
Moon 1:37 AM EST (1/24) 12:00 PM EST (1/24)
Length of Visible Light 10h 28m
Length of Day
9h 23m
Last Quarter, 45% of the Moon is Illuminated
Jan 24
Last Quarter
Jan 30
New
Feb 6
First Quarter
Feb 14
Full
Feb 22
Last Quarter

Hourly Weather History & Observations

Time (EST) Temp. Windchill Dew Point Humidity Pressure Visibility Wind Dir Wind Speed Gust Speed Precip Events Conditions
12:15 AM 1.6 °F -12.2 °F -7.4 °F 66% 30.23 in 10.0 mi WSW 8.1 mph - N/A   Clear
12:34 AM 0.9 °F -10.5 °F -7.1 °F 69% 30.22 in 10.0 mi WSW 5.8 mph - N/A   Clear
12:55 AM 0.1 °F -14.0 °F -8.7 °F 66% 30.21 in 10.0 mi WSW 8.1 mph - N/A   Clear
1:14 AM -0.8 °F -13.9 °F -9.4 °F 67% 30.19 in 10.0 mi WSW 6.9 mph - N/A   Clear
1:34 AM 0.3 °F -13.8 °F -7.2 °F 70% 30.16 in 10.0 mi SW 8.1 mph - N/A   Clear
1:54 AM 2.3 °F -12.4 °F -5.8 °F 69% 30.15 in 10.0 mi SW 9.2 mph 18.4 mph N/A   Clear
2:14 AM 2.1 °F -13.6 °F -4.9 °F 72% 30.13 in 10.0 mi SW 10.4 mph 17.3 mph N/A   Clear
2:35 AM 0.5 °F -15.6 °F -6.0 °F 74% 30.13 in 10.0 mi SW 10.4 mph 17.3 mph N/A   Clear
2:54 AM 0.3 °F -12.6 °F -6.2 °F 74% 30.12 in 10.0 mi WSW 6.9 mph - N/A   Scattered Clouds
3:15 AM -1.3 °F -17.8 °F -8.5 °F 72% 30.10 in 10.0 mi SW 10.4 mph 18.4 mph N/A   Clear
3:35 AM -1.5 °F -13.3 °F -7.6 °F 75% 30.09 in 10.0 mi WSW 5.8 mph - N/A   Scattered Clouds
3:54 AM -0.8 °F -16.2 °F -6.7 °F 76% 30.06 in 10.0 mi SW 9.2 mph 19.6 mph N/A   Scattered Clouds
4:15 AM -0.9 °F -19.1 °F -6.7 °F 77% 30.05 in 5.0 mi SW 12.7 mph 20.7 mph N/A   Haze
4:34 AM -1.8 °F -22.4 °F -7.8 °F 76% 30.04 in 5.0 mi SW 16.1 mph 23.0 mph N/A   Haze
4:55 AM -3.1 °F -24.7 °F -8.9 °F 76% 30.03 in 5.0 mi SW 17.3 mph 24.2 mph N/A   Haze
5:15 AM -4.0 °F -25.8 °F -9.4 °F 78% 30.01 in 7.0 mi SSW 17.3 mph 23.0 mph N/A   Mostly Cloudy
5:34 AM -3.5 °F -23.1 °F -8.9 °F 78% 29.99 in 7.0 mi SSW 13.8 mph 21.9 mph N/A   Overcast
5:55 AM -2.7 °F -22.9 °F -8.3 °F 77% 29.97 in 5.0 mi SW 15.0 mph 24.2 mph N/A   Haze
6:15 AM -1.1 °F -18.5 °F -6.5 °F 78% 29.94 in 5.0 mi SW 11.5 mph 23.0 mph N/A   Haze
6:34 AM 0.1 °F -18.5 °F -5.1 °F 79% 29.92 in 7.0 mi SW 13.8 mph 24.2 mph N/A   Overcast
6:55 AM 1.6 °F -18.6 °F -3.6 °F 79% 29.89 in 5.0 mi SW 17.3 mph 25.3 mph N/A   Haze
7:15 AM 3.2 °F -14.6 °F -2.2 °F 78% 29.86 in 7.0 mi SW 13.8 mph 26.5 mph N/A   Overcast
7:34 AM 3.9 °F -14.3 °F -1.3 °F 79% 29.83 in 2.0 mi SW 15.0 mph 25.3 mph N/A Snow Light Snow
7:55 AM 7.5 °F -9.1 °F 3.6 °F 84% 29.80 in 3.0 mi SW 13.8 mph 25.3 mph N/A Snow Light Snow
8:14 AM 7.3 °F -7.1 °F 2.1 °F 79% 29.78 in 7.0 mi WSW 10.4 mph 26.5 mph N/A   Overcast
8:35 AM 8.6 °F -8.9 °F 3.4 °F 79% 29.75 in 0.8 mi SW 16.1 mph 28.8 mph N/A Snow Light Snow
8:55 AM 8.8 °F -8.7 °F 4.5 °F 83% 29.74 in 0.5 mi SW 16.1 mph 28.8 mph N/A Snow Light Snow
9:14 AM 7.5 °F -9.7 °F 3.0 °F 82% 29.73 in 0.5 mi WSW 15.0 mph 25.3 mph N/A Snow Snow
9:35 AM 7.2 °F -10.2 °F 2.8 °F 82% 29.73 in 0.2 mi SW 15.0 mph 27.6 mph N/A Snow Snow
9:55 AM 7.3 °F -10.0 °F 2.7 °F 81% 29.71 in 0.5 mi SW 15.0 mph 29.9 mph N/A Snow Snow
10:14 AM 7.0 °F -11.0 °F 2.3 °F 81% 29.69 in 0.2 mi SW 16.1 mph 33.4 mph N/A Snow Snow
10:35 AM 7.0 °F -12.6 °F 2.1 °F 80% 29.67 in 0.5 mi SW 19.6 mph 33.4 mph N/A Snow Light Snow
10:54 AM 6.8 °F -11.8 °F 1.8 °F 80% 29.65 in 1.0 mi SW 17.3 mph 27.6 mph N/A Snow Light Snow
11:14 AM 7.3 °F -10.0 °F 2.1 °F 79% 29.63 in 1.2 mi SW 15.0 mph 33.4 mph N/A Snow Light Snow
11:35 AM 7.7 °F -8.9 °F 2.1 °F 78% 29.62 in 1.8 mi SW 13.8 mph 29.9 mph N/A Snow Light Snow
11:54 AM 8.1 °F -7.0 °F 2.7 °F 79% 29.60 in 2.0 mi SW 11.5 mph 24.2 mph N/A Snow Light Snow
12:15 PM 8.8 °F -8.1 °F 3.2 °F 78% 29.58 in 2.0 mi WSW 15.0 mph 26.5 mph N/A Snow Light Snow
12:34 PM 8.6 °F -8.9 °F 2.5 °F 76% 29.57 in 2.5 mi WSW 16.1 mph 23.0 mph N/A Snow Light Snow
12:54 PM 9.3 °F -8.6 °F 3.2 °F 76% 29.55 in 3.0 mi WSW 17.3 mph 27.6 mph N/A Snow Light Snow
1:15 PM 10.0 °F -3.7 °F 4.1 °F 77% 29.53 in 2.5 mi WSW 10.4 mph 28.8 mph N/A Snow Light Snow
1:34 PM 9.9 °F -6.1 °F 3.7 °F 76% 29.51 in 4.0 mi WSW 13.8 mph 23.0 mph N/A Snow Light Snow
1:55 PM 10.4 °F -6.0 °F 4.8 °F 78% 29.49 in 4.0 mi WSW 15.0 mph 24.2 mph N/A Snow Light Snow
2:15 PM 10.9 °F -2.6 °F 5.2 °F 78% 29.47 in 4.0 mi WSW 10.4 mph 25.3 mph N/A Snow Light Snow
2:34 PM 11.3 °F -3.6 °F 5.4 °F 77% 29.46 in 4.0 mi SW 12.7 mph 21.9 mph N/A Snow Light Snow
2:55 PM 12.2 °F -2.5 °F 6.3 °F 77% 29.45 in 7.0 mi WSW 12.7 mph 21.9 mph N/A Snow Light Snow
3:14 PM 12.6 °F 0.2 °F 6.8 °F 78% 29.43 in 10.0 mi SW 9.2 mph 18.4 mph N/A Snow Light Snow
3:35 PM 12.9 °F 0.7 °F 7.2 °F 78% 29.42 in 5.0 mi WSW 9.2 mph 20.7 mph N/A Snow Light Snow
3:55 PM 13.1 °F 1.8 °F 7.5 °F 78% 29.42 in 10.0 mi WSW 8.1 mph - N/A Snow Light Snow
4:14 PM 13.8 °F 2.7 °F 8.2 °F 78% 29.40 in 5.0 mi WSW 8.1 mph 19.6 mph N/A Snow Light Snow
4:35 PM 14.5 °F 1.9 °F 9.3 °F 80% 29.39 in 4.0 mi WSW 10.4 mph 18.4 mph N/A Snow Light Snow
4:54 PM 14.9 °F 4.0 °F 9.9 °F 80% 29.38 in 7.0 mi WSW 8.1 mph 17.3 mph N/A Snow Light Snow
5:15 PM 14.9 °F 2.3 °F 10.4 °F 82% 29.36 in 1.0 mi WSW 10.4 mph 18.4 mph N/A Snow Light Snow
5:34 PM 15.6 °F 4.0 °F 10.4 °F 80% 29.35 in 10.0 mi SW 9.2 mph 19.6 mph N/A   Overcast
5:55 PM 15.6 °F 1.8 °F 11.3 °F 83% 29.35 in 1.8 mi SW 12.7 mph 19.6 mph N/A Snow Light Snow
6:15 PM 15.6 °F 4.0 °F 12.0 °F 86% 29.35 in 2.0 mi WSW 9.2 mph 18.4 mph N/A Snow Light Snow
6:34 PM 15.8 °F 2.1 °F 12.2 °F 86% 29.34 in 2.0 mi SW 12.7 mph 19.6 mph N/A Snow Light Snow
6:55 PM 15.8 °F 3.4 °F 12.6 °F 87% 29.34 in 1.8 mi WSW 10.4 mph 18.4 mph N/A Snow Light Snow
7:15 PM 16.2 °F 4.7 °F 12.9 °F 87% 29.33 in 2.0 mi WSW 9.2 mph 18.4 mph N/A Snow Light Snow
7:34 PM 16.5 °F 5.1 °F 13.1 °F 86% 29.32 in 3.0 mi WSW 9.2 mph - N/A Snow Light Snow
7:55 PM 16.7 °F 3.8 °F 12.9 °F 85% 29.31 in 7.0 mi WSW 11.5 mph 20.7 mph N/A Snow Light Snow
8:14 PM 17.1 °F 4.3 °F 13.1 °F 84% 29.30 in 7.0 mi West 11.5 mph 17.3 mph N/A Snow Light Snow
8:35 PM 17.2 °F 6.0 °F 13.8 °F 86% 29.29 in 2.0 mi WSW 9.2 mph 17.3 mph N/A Snow Light Snow
8:54 PM 17.2 °F 6.0 °F 13.8 °F 86% 29.28 in 4.0 mi WSW 9.2 mph 17.3 mph N/A Snow Light Snow
9:14 PM 17.4 °F 6.2 °F 14.0 °F 86% 29.27 in 2.0 mi WSW 9.2 mph - N/A Snow Light Snow
9:35 PM 17.6 °F 7.3 °F 14.0 °F 86% 29.25 in 4.0 mi West 8.1 mph 18.4 mph N/A Snow Light Snow
9:54 PM 17.6 °F 7.3 °F 14.4 °F 87% 29.25 in 3.0 mi West 8.1 mph - N/A Snow Light Snow
10:15 PM 17.6 °F 8.2 °F 14.0 °F 86% 29.24 in 7.0 mi WSW 6.9 mph - N/A Snow Light Snow
10:34 PM 18.1 °F 7.1 °F 14.5 °F 86% 29.23 in 4.0 mi West 9.2 mph 17.3 mph N/A Snow Light Snow
10:54 PM 18.1 °F 7.1 °F 14.9 °F 87% 29.22 in 3.0 mi WSW 9.2 mph - N/A Snow Light Snow
11:15 PM 18.1 °F 10.0 °F 14.9 °F 87% 29.21 in 4.0 mi WSW 5.8 mph - N/A Snow Light Snow
11:34 PM 18.1 °F 8.9 °F 14.9 °F 87% 29.20 in 7.0 mi West 6.9 mph - N/A Snow Light Snow
11:55 PM 18.5 °F 8.4 °F 15.3 °F 87% 29.18 in 5.0 mi WSW 8.1 mph - N/A Snow Light Snow